Regional Weather Roundup
Issued by NWS

Home | Current Version | Previous Version | Text Only | Print | Product List | Glossary On
Versions: 1 2 3 4 5 6 7 8 9 10 11 12 13 14 15 16 17 18 19 20 21 22 23 24 25 26 27 28 29 30 31 32 33 34 35 36 37 38 39 40 41 42 43 44 45 46 47 48 49 50
000
ASUS45 KPSR 270710
RWRAZ

ARIZONA REGIONAL HOURLY WEATHER ROUNDUP
NATIONAL WEATHER SERVICE PHOENIX AZ
1200 AM MST MON APR 27 2015

NOTE: FAIR INDICATES FEW OR NO CLOUDS BELOW 12,000 FEET WITH NO
SIGNIFICANT WEATHER AND/OR OBSTRUCTIONS TO VISIBILITY.

AZZ001>003-036-270800-
NORTHWEST ARIZONA

CITY           SKY/WX    TMP DP  RH WIND       PRES   REMARKS
BULLHEAD CITY  CLEAR     68  27  21 NE12      29.93R
KINGMAN        CLEAR     47  28  47 N9        29.99R
$$

AZZ004>008-015-016-018-270800-
NORTH CENTRAL ARIZONA

CITY           SKY/WX    TMP DP  RH WIND       PRES   REMARKS
GRAND CANYON   CLEAR     30  26  85 N5        30.03S WCI  25
WILLIAMS       CLEAR     30  25  80 CALM      30.10S
PRESCOTT       CLEAR     42  28  57 NW6       30.00R
FLAGSTAFF      CLEAR     35  27  72 NW3       30.01R
PAYSON         CLEAR     41  39  93 CALM      29.98R
PAGE           CLEAR     51  28  41 W8        29.98R
$$

AZZ009>014-017-270800-
NORTHEAST ARIZONA

CITY           SKY/WX    TMP DP  RH WIND       PRES   REMARKS
WINSLOW        CLEAR     45  33  63 NW10      29.95R
SAINT JOHNS    MOCLDY    41  37  86 SW5       29.92R
WINDOW ROCK    CLOUDY    44  36  73 N3        29.92F
SHOW LOW       PTCLDY    36  32  87 S8        29.98R WCI  29
$$

AZZ023-270800-
GREATER PHOENIX AREA

CITY           SKY/WX    TMP DP  RH WIND       PRES   REMARKS
PHOENIX        PTCLDY    62  50  64 CALM      29.85R
BUCKEYE        CLEAR     59  46  63 N3        29.87S
LUKE AFB       CLEAR     58  50  74 NW2       29.86R
DEER VALLEY    CLEAR     58  49  72 NE5       29.87R
SCOTTSDALE     CLEAR     58  52  80 CALM      29.87S
MESA-GATEWAY   MOCLDY    57  46  67 NE5       29.88S
$$

AZZ027-028-270800-
SOUTHWEST MARICOPA COUNTY AND PINAL COUNTY

CITY           SKY/WX    TMP DP  RH WIND       PRES   REMARKS
CASA GRANDE    CLEAR     59  41  51 CALM      29.86S
GILA BEND      FAIR      57  22  25 SW6       29.85R
$$

AZZ503-504-507>509-270800-
SOUTHEAST ARIZONA

CITY           SKY/WX    TMP DP  RH WIND       PRES   REMARKS
TUCSON         CLEAR     56  39  53 SW3       29.92S
DAVIS-MONTHAN  CLEAR     54  42  64 S2        29.90R
NOGALES        CLEAR     47  28  47 CALM      29.94R
SIERRA VISTA   CLEAR     47  29  48 W8        29.96S
DOUGLAS        CLEAR     40  30  67 N8        29.94S WCI  34
SAFFORD        CLEAR     49  43  80 CALM      29.89S
$$

AZZ020-021-025-026-031-270800-
SOUTHWEST ARIZONA

CITY           SKY/WX    TMP DP  RH WIND       PRES   REMARKS
YUMA           CLEAR     70  27  20 N3        29.86R
$$

CAZ031-033-041-043-047-048-061-270800-
SOUTHERN CALIFORNIA

CITY           SKY/WX    TMP DP  RH WIND       PRES   REMARKS
DOWNTOWN L.A.  CLEAR     63  50  62 E5        29.93S
L.A. AIRPORT   PTCLDY    60  52  74 E9        29.94R
SAN DIEGO      MOCLDY    63  50  62 CALM      29.95S
BURBANK        CLEAR     63  47  55 SE5       29.94R
ONTARIO        PTCLDY    60  44  55 CALM      29.94S
RIVERSIDE      PTCLDY    60  45  57 CALM      29.95S
PALM SPRINGS   CLEAR     71  45  39 N12       29.91R
EL CENTRO NAS  PTCLDY    65  45  48 NW6       29.87R
IMPERIAL       PTCLDY    67  48  50 CALM      29.86R
BLYTHE         CLEAR     66  20  17 N8        29.88R
NEEDLES        CLEAR     69  22  16 N9        29.92R
$$

NVZ020-UTZ003-270800-
SOUTHERN NEVADA-UTAH

CITY           SKY/WX    TMP DP  RH WIND       PRES   REMARKS
LAS VEGAS      PTCLDY    64  18  17 NW15      29.98R
SALT LAKE CITY MOCLDY    47  36  65 NW8       30.14R
$$

NMZ009-TXZ055-270800-
NEW MEXICO-WEST TEXAS

CITY           SKY/WX    TMP DP  RH WIND       PRES   REMARKS
ALBUQUERQUE    LGT RAIN  45  42  89 E14       29.91R
EL PASO        PTCLDY    56  36  47 W22G28    29.84F
$$


........................KEY........................
SKY/WX - SKY CONDITION/WEATHER
TMP    - TEMPERATURE IN FAHRENHEIT
DP     - DEW POINT IN FAHRENHEIT
RH     - RELATIVE HUMIDITY IN PERCENT
WIND   - DIRECTION AND SPEED IN MILES PER HOUR (MPH)
VRB    - VARIABLE WIND DIRECTION
PRES   - MEAN SEA LEVEL PRESSURE IN INCHES OF MERCURY
         F - FALLING PRESSURE   R - RISING PRESSURE
         S - STEADY PRESSURE
VSB    - VISIBILITY IN MILES
HX     - HEAT INDEX IN FAHRENHEIT
WCI    - WIND CHILL INDEX IN FAHRENHEIT
TC     - TEMPERATURE IN CELSIUS WHICH IS ALSO KNOWN AS
         TEMPERATURE IN CENTIGRADE
AFB    - AIR FORCE BASE
         LUKE AFB IS LUKE AIR FORCE BASE
         DAVIS-MONTHAN IS DAVIS-MONTHAN AIR FORCE BASE
NAS    - NAVAL AIR STATION
         EL CENTRO NAS IS EL CENTRO NAVAL AIR STATION
N/A    - NOT AVAILABLE




USA.gov is the U.S. government's official web portal to all federal, state and local government web resources and services.